Back to catalog

FENGYUN 1C DEB

AliveSSO
NORAD 37438·DEBRIS·🇨🇳 China

Launched May 10, 1999 from Taiyuan Satellite Launch Center

Loading…

Next Passes (next 24 hours)

TLE

FreshSource: Space-Track

Epoch: Sep 13, 2026, 08:14 UTC

1 37438U 99025EHG 26256.34332138  .00000701  00000-0  37516-3 0  9991
2 37438  98.7143 294.6608 0029690 155.1817 205.0793 14.16101687640212

Track FENGYUN 1C DEB in real time with AllMySat

Download on the App Store